Year,Month,Day,Hour,Minute,Value (Times are PST for temperature in C)
2006,06,29,00,00,12.30
2006,06,29,00,01,12.30
2006,06,29,00,02,12.30
2006,06,29,00,03,12.30
2006,06,29,00,04,12.30
2006,06,29,00,05,12.30
2006,06,29,00,06,12.30
2006,06,29,00,07,12.30
2006,06,29,00,08,12.30
2006,06,29,00,09,12.30
2006,06,29,00,10,12.30
2006,06,29,00,11,12.30
2006,06,29,00,12,12.30
2006,06,29,00,13,12.20
2006,06,29,00,14,12.20
2006,06,29,00,15,12.20
2006,06,29,00,16,12.20
2006,06,29,00,17,12.20
2006,06,29,00,18,12.10
2006,06,29,00,19,12.10
2006,06,29,00,20,12.10
2006,06,29,00,21,12.10
2006,06,29,00,22,12.00
2006,06,29,00,23,12.00
2006,06,29,00,24,11.90
2006,06,29,00,25,11.90
2006,06,29,00,26,11.90
2006,06,29,00,27,11.90
2006,06,29,00,28,11.90
2006,06,29,00,29,11.80
2006,06,29,00,30,11.80
2006,06,29,00,31,11.80
2006,06,29,00,32,11.80
2006,06,29,00,33,11.80
2006,06,29,00,34,11.80
2006,06,29,00,35,11.70
2006,06,29,00,36,11.70
2006,06,29,00,37,11.70
2006,06,29,00,38,11.70
2006,06,29,00,39,11.60
2006,06,29,00,40,11.60
2006,06,29,00,41,11.60
2006,06,29,00,42,11.50
2006,06,29,00,43,11.50
2006,06,29,00,44,11.50
2006,06,29,00,45,11.40
2006,06,29,00,46,11.40
2006,06,29,00,47,11.40
2006,06,29,00,48,11.40
2006,06,29,00,49,11.40
2006,06,29,00,50,11.40
2006,06,29,00,51,11.30
2006,06,29,00,52,11.30
2006,06,29,00,53,11.30
2006,06,29,00,54,11.30
2006,06,29,00,55,11.30
2006,06,29,00,56,11.30
2006,06,29,00,57,11.30
2006,06,29,00,58,11.20
2006,06,29,00,59,11.20
2006,06,29,01,00,11.20
2006,06,29,01,01,11.20
2006,06,29,01,02,11.20
2006,06,29,01,03,11.20
2006,06,29,01,04,11.20
2006,06,29,01,05,11.10
2006,06,29,01,06,11.10
2006,06,29,01,07,11.10
2006,06,29,01,08,11.10
2006,06,29,01,09,11.10
2006,06,29,01,10,11.00
2006,06,29,01,11,11.00
2006,06,29,01,12,11.00
2006,06,29,01,13,10.90
2006,06,29,01,14,10.90
2006,06,29,01,15,10.90
2006,06,29,01,16,10.90
2006,06,29,01,17,10.80
2006,06,29,01,18,10.80
2006,06,29,01,19,10.80
2006,06,29,01,20,10.80
2006,06,29,01,21,10.80
2006,06,29,01,22,10.70
2006,06,29,01,23,10.70
2006,06,29,01,24,10.70
2006,06,29,01,25,10.70
2006,06,29,01,26,10.60
2006,06,29,01,27,10.60
2006,06,29,01,28,10.60
2006,06,29,01,29,10.60
2006,06,29,01,30,10.60
2006,06,29,01,31,10.60
2006,06,29,01,32,10.60
2006,06,29,01,33,10.50
2006,06,29,01,34,10.50
2006,06,29,01,35,10.50
2006,06,29,01,36,10.50
2006,06,29,01,37,10.40
2006,06,29,01,38,10.40
2006,06,29,01,39,10.40
2006,06,29,01,40,10.40
2006,06,29,01,41,10.40
2006,06,29,01,42,10.40
2006,06,29,01,43,10.40
2006,06,29,01,44,10.30
2006,06,29,01,45,10.30
2006,06,29,01,46,10.30
2006,06,29,01,47,10.30
2006,06,29,01,48,10.30
2006,06,29,01,49,10.30
2006,06,29,01,50,10.30
2006,06,29,01,51,10.30
2006,06,29,01,52,10.30
2006,06,29,01,53,10.30
2006,06,29,01,54,10.20
2006,06,29,01,55,10.20
2006,06,29,01,56,10.20
2006,06,29,01,57,10.20
2006,06,29,01,58,10.20
2006,06,29,01,59,10.20
2006,06,29,02,00,10.20
2006,06,29,02,01,10.20
2006,06,29,02,02,10.20
2006,06,29,02,03,10.20
2006,06,29,02,04,10.20
2006,06,29,02,05,10.20
2006,06,29,02,06,10.20
2006,06,29,02,07,10.10
2006,06,29,02,08,10.10
2006,06,29,02,09,10.10
2006,06,29,02,10,10.10
2006,06,29,02,11,10.10
2006,06,29,02,12,10.00
2006,06,29,02,13,10.00
2006,06,29,02,14,10.00
2006,06,29,02,15,9.90
2006,06,29,02,16,9.90
2006,06,29,02,17,9.90
2006,06,29,02,18,9.90
2006,06,29,02,19,9.80
2006,06,29,02,20,9.80
2006,06,29,02,21,9.80
2006,06,29,02,22,9.80
2006,06,29,02,23,9.80
2006,06,29,02,24,9.80
2006,06,29,02,25,9.80
2006,06,29,02,26,9.80
2006,06,29,02,27,9.70
2006,06,29,02,28,9.70
2006,06,29,02,29,9.70
2006,06,29,02,30,9.70
2006,06,29,02,31,9.70
2006,06,29,02,32,9.60
2006,06,29,02,33,9.60
2006,06,29,02,34,9.60
2006,06,29,02,35,9.60
2006,06,29,02,36,9.60
2006,06,29,02,37,9.60
2006,06,29,02,38,9.60
2006,06,29,02,39,9.50
2006,06,29,02,40,9.50
2006,06,29,02,41,9.50
2006,06,29,02,42,9.50
2006,06,29,02,43,9.40
2006,06,29,02,44,9.40
2006,06,29,02,45,9.40
2006,06,29,02,46,9.40
2006,06,29,02,47,9.40
2006,06,29,02,48,9.30
2006,06,29,02,49,9.30
2006,06,29,02,50,9.30
2006,06,29,02,51,9.30
2006,06,29,02,52,9.30
2006,06,29,02,53,9.30
2006,06,29,02,54,9.30
2006,06,29,02,55,9.30
2006,06,29,02,56,9.30
2006,06,29,02,57,9.30
2006,06,29,02,58,9.30
2006,06,29,02,59,9.30
2006,06,29,03,00,9.20
2006,06,29,03,01,9.20
2006,06,29,03,02,9.20
2006,06,29,03,03,9.20
2006,06,29,03,04,9.20
2006,06,29,03,05,9.20
2006,06,29,03,06,9.20
2006,06,29,03,07,9.20
2006,06,29,03,08,9.20
2006,06,29,03,09,9.20
2006,06,29,03,10,9.20
2006,06,29,03,11,9.20
2006,06,29,03,12,9.20
2006,06,29,03,13,9.10
2006,06,29,03,14,9.10
2006,06,29,03,15,9.10
2006,06,29,03,16,9.10
2006,06,29,03,17,9.10
2006,06,29,03,18,9.10
2006,06,29,03,19,9.10
2006,06,29,03,20,9.10
2006,06,29,03,21,9.10
2006,06,29,03,22,9.10
2006,06,29,03,23,9.00
2006,06,29,03,24,9.00
2006,06,29,03,25,9.00
2006,06,29,03,26,9.00
2006,06,29,03,27,8.90
2006,06,29,03,28,8.90
2006,06,29,03,29,8.90
2006,06,29,03,30,8.90
2006,06,29,03,31,8.90
2006,06,29,03,32,8.90
2006,06,29,03,33,8.90
2006,06,29,03,34,8.90
2006,06,29,03,35,8.80
2006,06,29,03,36,8.80
2006,06,29,03,37,8.80
2006,06,29,03,38,8.80
2006,06,29,03,39,8.80
2006,06,29,03,40,8.80
2006,06,29,03,41,8.80
2006,06,29,03,42,8.80
2006,06,29,03,43,8.80
2006,06,29,03,44,8.80
2006,06,29,03,45,8.80
2006,06,29,03,46,8.80
2006,06,29,03,47,8.70
2006,06,29,03,48,8.70
2006,06,29,03,49,8.70
2006,06,29,03,50,8.70
2006,06,29,03,51,8.70
2006,06,29,03,52,8.70
2006,06,29,03,53,8.70
2006,06,29,03,54,8.70
2006,06,29,03,55,8.70
2006,06,29,03,56,8.70
2006,06,29,03,57,8.70
2006,06,29,03,58,8.70
2006,06,29,03,59,8.60
2006,06,29,04,00,8.60
2006,06,29,04,01,8.60
2006,06,29,04,02,8.60
2006,06,29,04,03,8.60
2006,06,29,04,04,8.60
2006,06,29,04,05,8.60
2006,06,29,04,06,8.60
2006,06,29,04,07,8.50
2006,06,29,04,08,8.50
2006,06,29,04,09,8.50
2006,06,29,04,10,8.50
2006,06,29,04,11,8.40
2006,06,29,04,12,8.40
2006,06,29,04,13,8.40
2006,06,29,04,14,8.40
2006,06,29,04,15,8.40
2006,06,29,04,16,8.40
2006,06,29,04,17,8.40
2006,06,29,04,18,8.30
2006,06,29,04,19,8.30
2006,06,29,04,20,8.30
2006,06,29,04,21,8.30
2006,06,29,04,22,8.30
2006,06,29,04,23,8.30
2006,06,29,04,24,8.30
2006,06,29,04,25,8.30
2006,06,29,04,26,8.30
2006,06,29,04,27,8.30
2006,06,29,04,28,8.30
2006,06,29,04,29,8.20
2006,06,29,04,30,8.20
2006,06,29,04,31,8.20
2006,06,29,04,32,8.20
2006,06,29,04,33,8.20
2006,06,29,04,34,8.20
2006,06,29,04,35,8.20
2006,06,29,04,36,8.20
2006,06,29,04,37,8.20
2006,06,29,04,38,8.20
2006,06,29,04,39,8.20
2006,06,29,04,40,8.20
2006,06,29,04,41,8.20
2006,06,29,04,42,8.20
2006,06,29,04,43,8.20
2006,06,29,04,44,8.20
2006,06,29,04,45,8.10
2006,06,29,04,46,8.10
2006,06,29,04,47,8.10
2006,06,29,04,48,8.10
2006,06,29,04,49,8.10
2006,06,29,04,50,8.10
2006,06,29,04,51,8.10
2006,06,29,04,52,8.10
2006,06,29,04,53,8.10
2006,06,29,04,54,8.10
2006,06,29,04,55,8.10
2006,06,29,04,56,8.10
2006,06,29,04,57,8.00
2006,06,29,04,58,8.00
2006,06,29,04,59,8.00
2006,06,29,05,00,8.00
2006,06,29,05,01,8.00
2006,06,29,05,02,7.90
2006,06,29,05,03,7.90
2006,06,29,05,04,7.90
2006,06,29,05,05,7.90
2006,06,29,05,06,7.90
2006,06,29,05,07,7.90
2006,06,29,05,08,7.90
2006,06,29,05,09,7.90
2006,06,29,05,10,7.80
2006,06,29,05,11,7.80
2006,06,29,05,12,7.80
2006,06,29,05,13,7.80
2006,06,29,05,14,7.80
2006,06,29,05,15,7.80
2006,06,29,05,16,7.80
2006,06,29,05,17,7.80
2006,06,29,05,18,7.80
2006,06,29,05,19,7.80
2006,06,29,05,20,7.80
2006,06,29,05,21,7.80
2006,06,29,05,22,7.80
2006,06,29,05,23,7.70
2006,06,29,05,24,7.70
2006,06,29,05,25,7.70
2006,06,29,05,26,7.70
2006,06,29,05,27,7.70
2006,06,29,05,28,7.70
2006,06,29,05,29,7.70
2006,06,29,05,30,7.70
2006,06,29,05,31,7.70
2006,06,29,05,32,7.70
2006,06,29,05,33,7.70
2006,06,29,05,34,7.70
2006,06,29,05,35,7.70
2006,06,29,05,36,7.70
2006,06,29,05,37,7.70
2006,06,29,05,38,7.70
2006,06,29,05,39,7.70
2006,06,29,05,40,7.70
2006,06,29,05,41,7.70
2006,06,29,05,42,7.80
2006,06,29,05,43,7.80
2006,06,29,05,44,7.80
2006,06,29,05,45,7.80
2006,06,29,05,46,7.80
2006,06,29,05,47,7.80
2006,06,29,05,48,7.70
2006,06,29,05,49,7.70
2006,06,29,05,50,7.70
2006,06,29,05,51,7.70
2006,06,29,05,52,7.70
2006,06,29,05,53,7.70
2006,06,29,05,54,7.70
2006,06,29,05,55,7.70
2006,06,29,05,56,7.70
2006,06,29,05,57,7.60
2006,06,29,05,58,7.60
2006,06,29,05,59,7.60
2006,06,29,06,00,7.60
2006,06,29,06,01,7.60
2006,06,29,06,02,7.60
2006,06,29,06,03,7.60
2006,06,29,06,04,7.60
2006,06,29,06,05,7.60
2006,06,29,06,06,7.60
2006,06,29,06,07,7.60
2006,06,29,06,08,7.60
2006,06,29,06,09,7.60
2006,06,29,06,10,7.60
2006,06,29,06,11,7.60
2006,06,29,06,12,7.60
2006,06,29,06,13,7.60
2006,06,29,06,14,7.60
2006,06,29,06,15,7.60
2006,06,29,06,16,7.60
2006,06,29,06,17,7.60
2006,06,29,06,18,7.60
2006,06,29,06,19,7.60
2006,06,29,06,20,7.60
2006,06,29,06,21,7.60
2006,06,29,06,22,7.60
2006,06,29,06,23,7.60
2006,06,29,06,24,7.60
2006,06,29,06,25,7.60
2006,06,29,06,26,7.60
2006,06,29,06,27,7.60
2006,06,29,06,28,7.60
2006,06,29,06,29,7.60
2006,06,29,06,30,7.60
2006,06,29,06,31,7.60
2006,06,29,06,32,7.60
2006,06,29,06,33,7.60
2006,06,29,06,34,7.70
2006,06,29,06,35,7.70
2006,06,29,06,36,7.70
2006,06,29,06,37,7.70
2006,06,29,06,38,7.70
2006,06,29,06,39,7.70
2006,06,29,06,40,7.70
2006,06,29,06,41,7.70
2006,06,29,06,42,7.70
2006,06,29,06,43,7.70
2006,06,29,06,44,7.70
2006,06,29,06,45,7.70
2006,06,29,06,46,7.70
2006,06,29,06,47,7.70
2006,06,29,06,48,7.70
2006,06,29,06,49,7.70
2006,06,29,06,50,7.70
2006,06,29,06,51,7.70
2006,06,29,06,52,7.70
2006,06,29,06,53,7.80
2006,06,29,06,54,7.80
2006,06,29,06,55,7.80
2006,06,29,06,56,7.80
2006,06,29,06,57,7.90
2006,06,29,06,58,7.90
2006,06,29,06,59,8.00
2006,06,29,07,00,8.00
2006,06,29,07,01,8.10
2006,06,29,07,02,8.10
2006,06,29,07,03,8.20
2006,06,29,07,04,8.30
2006,06,29,07,05,8.40
2006,06,29,07,06,8.50
2006,06,29,07,07,8.60
2006,06,29,07,08,8.70
2006,06,29,07,09,8.80
2006,06,29,07,10,8.90
2006,06,29,07,11,9.10
2006,06,29,07,12,9.20
2006,06,29,07,13,9.40
2006,06,29,07,14,9.50
2006,06,29,07,15,9.60
2006,06,29,07,16,9.80
2006,06,29,07,17,9.80
2006,06,29,07,18,9.90
2006,06,29,07,19,10.00
2006,06,29,07,20,10.00
2006,06,29,07,21,10.10
2006,06,29,07,22,10.30
2006,06,29,07,23,10.40
2006,06,29,07,24,10.60
2006,06,29,07,25,10.70
2006,06,29,07,26,10.80
2006,06,29,07,27,10.80
2006,06,29,07,28,10.80
2006,06,29,07,29,10.90
2006,06,29,07,30,10.90
2006,06,29,07,31,11.00
2006,06,29,07,32,11.00
2006,06,29,07,33,11.10
2006,06,29,07,34,11.20
2006,06,29,07,35,11.30
2006,06,29,07,36,11.40
2006,06,29,07,37,11.40
2006,06,29,07,38,11.50
2006,06,29,07,39,11.60
2006,06,29,07,40,11.70
2006,06,29,07,41,11.80
2006,06,29,07,42,11.90
2006,06,29,07,43,12.00
2006,06,29,07,44,12.20
2006,06,29,07,45,12.30
2006,06,29,07,46,12.30
2006,06,29,07,47,12.40
2006,06,29,07,48,12.50
2006,06,29,07,49,12.50
2006,06,29,07,50,12.50
2006,06,29,07,51,12.60
2006,06,29,07,52,12.70
2006,06,29,07,53,12.80
2006,06,29,07,54,12.90
2006,06,29,07,55,13.00
2006,06,29,07,56,13.10
2006,06,29,07,57,13.20
2006,06,29,07,58,13.30
2006,06,29,07,59,13.50
2006,06,29,08,00,13.60
2006,06,29,08,01,13.80
2006,06,29,08,02,13.90
2006,06,29,08,03,14.00
2006,06,29,08,04,14.10
2006,06,29,08,05,14.20
2006,06,29,08,06,14.30
2006,06,29,08,07,14.30
2006,06,29,08,08,14.40
2006,06,29,08,09,14.50
2006,06,29,08,10,14.60
2006,06,29,08,11,14.70
2006,06,29,08,12,14.80
2006,06,29,08,13,14.80
2006,06,29,08,14,14.80
2006,06,29,08,15,14.80
2006,06,29,08,16,14.80
2006,06,29,08,17,14.90
2006,06,29,08,18,15.00
2006,06,29,08,19,15.00
2006,06,29,08,20,15.00
2006,06,29,08,21,15.00
2006,06,29,08,22,15.00
2006,06,29,08,23,15.00
2006,06,29,08,24,14.90
2006,06,29,08,25,14.90
2006,06,29,08,26,15.00
2006,06,29,08,27,15.00
2006,06,29,08,28,15.00
2006,06,29,08,29,15.10
2006,06,29,08,30,15.20
2006,06,29,08,31,15.20
2006,06,29,08,32,15.20
2006,06,29,08,33,15.30
2006,06,29,08,34,15.30
2006,06,29,08,35,15.40
2006,06,29,08,36,15.50
2006,06,29,08,37,15.60
2006,06,29,08,38,15.70
2006,06,29,08,39,15.70
2006,06,29,08,40,15.60
2006,06,29,08,41,15.60
2006,06,29,08,42,15.60
2006,06,29,08,43,15.60
2006,06,29,08,44,15.70
2006,06,29,08,45,15.80
2006,06,29,08,46,15.90
2006,06,29,08,47,15.90
2006,06,29,08,48,16.10
2006,06,29,08,49,16.20
2006,06,29,08,50,16.20
2006,06,29,08,51,16.40
2006,06,29,08,52,16.50
2006,06,29,08,53,16.60
2006,06,29,08,54,16.70
2006,06,29,08,55,16.70
2006,06,29,08,56,16.70
2006,06,29,08,57,16.70
2006,06,29,08,58,16.70
2006,06,29,08,59,16.60
2006,06,29,09,00,16.50
2006,06,29,09,01,16.40
2006,06,29,09,02,16.40
2006,06,29,09,03,16.50
2006,06,29,09,04,16.60
2006,06,29,09,05,16.70
2006,06,29,09,06,16.80
2006,06,29,09,07,16.90
2006,06,29,09,08,17.00
2006,06,29,09,09,17.00
2006,06,29,09,10,17.00
2006,06,29,09,11,17.00
2006,06,29,09,12,17.00
2006,06,29,09,13,17.00
2006,06,29,09,14,17.00
2006,06,29,09,15,17.00
2006,06,29,09,16,17.10
2006,06,29,09,17,17.10
2006,06,29,09,18,17.20
2006,06,29,09,19,17.30
2006,06,29,09,20,17.30
2006,06,29,09,21,17.30
2006,06,29,09,22,17.30
2006,06,29,09,23,17.40
2006,06,29,09,24,17.50
2006,06,29,09,25,17.70
2006,06,29,09,26,17.80
2006,06,29,09,27,17.90
2006,06,29,09,28,18.00
2006,06,29,09,29,18.10
2006,06,29,09,30,18.20
2006,06,29,09,31,18.20
2006,06,29,09,32,18.30
2006,06,29,09,33,18.30
2006,06,29,09,34,18.30
2006,06,29,09,35,18.20
2006,06,29,09,36,18.20
2006,06,29,09,37,18.30
2006,06,29,09,38,18.30
2006,06,29,09,39,18.40
2006,06,29,09,40,18.50
2006,06,29,09,41,18.60
2006,06,29,09,42,18.60
2006,06,29,09,43,18.60
2006,06,29,09,44,18.60
2006,06,29,09,45,18.60
2006,06,29,09,46,18.70
2006,06,29,09,47,18.80
2006,06,29,09,48,18.90
2006,06,29,09,49,18.90
2006,06,29,09,50,19.00
2006,06,29,09,51,19.10
2006,06,29,09,52,19.10
2006,06,29,09,53,19.20
2006,06,29,09,54,19.30
2006,06,29,09,55,19.30
2006,06,29,09,56,19.30
2006,06,29,09,57,19.30
2006,06,29,09,58,19.30
2006,06,29,09,59,19.30
2006,06,29,10,00,19.20
2006,06,29,10,01,19.20
2006,06,29,10,02,19.20
2006,06,29,10,03,19.30
2006,06,29,10,04,19.30
2006,06,29,10,05,19.40
2006,06,29,10,06,19.40
2006,06,29,10,07,19.40
2006,06,29,10,08,19.40
2006,06,29,10,09,19.40
2006,06,29,10,10,19.50
2006,06,29,10,11,19.50
2006,06,29,10,12,19.60
2006,06,29,10,13,19.60
2006,06,29,10,14,19.50
2006,06,29,10,15,19.40
2006,06,29,10,16,19.40
2006,06,29,10,17,19.40
2006,06,29,10,18,19.50
2006,06,29,10,19,19.70
2006,06,29,10,20,19.80
2006,06,29,10,21,19.80
2006,06,29,10,22,19.80
2006,06,29,10,23,19.80
2006,06,29,10,24,19.80
2006,06,29,10,25,19.80
2006,06,29,10,26,19.80
2006,06,29,10,27,19.80
2006,06,29,10,28,19.90
2006,06,29,10,29,19.90
2006,06,29,10,30,20.00
2006,06,29,10,31,20.10
2006,06,29,10,32,20.10
2006,06,29,10,33,20.10
2006,06,29,10,34,20.10
2006,06,29,10,35,20.10
2006,06,29,10,36,20.10
2006,06,29,10,37,20.20
2006,06,29,10,38,20.20
2006,06,29,10,39,20.30
2006,06,29,10,40,20.40
2006,06,29,10,41,20.50
2006,06,29,10,42,20.60
2006,06,29,10,43,20.70
2006,06,29,10,44,20.80
2006,06,29,10,45,20.90
2006,06,29,10,46,21.00
2006,06,29,10,47,21.10
2006,06,29,10,48,21.10
2006,06,29,10,49,21.20
2006,06,29,10,50,21.30
2006,06,29,10,51,21.40
2006,06,29,10,52,21.50
2006,06,29,10,53,21.60
2006,06,29,10,54,21.70
2006,06,29,10,55,21.80
2006,06,29,10,56,21.80
2006,06,29,10,57,21.70
2006,06,29,10,58,21.70
2006,06,29,10,59,21.50
2006,06,29,11,00,21.30
2006,06,29,11,01,21.10
2006,06,29,11,02,20.90
2006,06,29,11,03,20.80
2006,06,29,11,04,20.70
2006,06,29,11,05,20.70
2006,06,29,11,06,20.70
2006,06,29,11,07,20.80
2006,06,29,11,08,20.90
2006,06,29,11,09,21.00
2006,06,29,11,10,21.20
2006,06,29,11,11,21.30
2006,06,29,11,12,21.20
2006,06,29,11,13,21.10
2006,06,29,11,14,21.10
2006,06,29,11,15,21.10
2006,06,29,11,16,21.10
2006,06,29,11,17,21.20
2006,06,29,11,18,21.30
2006,06,29,11,19,21.40
2006,06,29,11,20,21.50
2006,06,29,11,21,21.50
2006,06,29,11,22,21.50
2006,06,29,11,23,21.50
2006,06,29,11,24,21.50
2006,06,29,11,25,21.60
2006,06,29,11,26,21.50
2006,06,29,11,27,21.50
2006,06,29,11,28,21.50
2006,06,29,11,29,21.60
2006,06,29,11,30,21.60
2006,06,29,11,31,21.60
2006,06,29,11,32,21.70
2006,06,29,11,33,21.80
2006,06,29,11,34,21.80
2006,06,29,11,35,21.70
2006,06,29,11,36,21.80
2006,06,29,11,37,21.90
2006,06,29,11,38,22.10
2006,06,29,11,39,22.20
2006,06,29,11,40,22.20
2006,06,29,11,41,22.20
2006,06,29,11,42,22.10
2006,06,29,11,43,22.10
2006,06,29,11,44,22.10
2006,06,29,11,45,22.10
2006,06,29,11,46,22.00
2006,06,29,11,47,22.00
2006,06,29,11,48,22.00
2006,06,29,11,49,22.10
2006,06,29,11,50,22.20
2006,06,29,11,51,22.20
2006,06,29,11,52,22.30
2006,06,29,11,53,22.30
2006,06,29,11,54,22.30
2006,06,29,11,55,22.30
2006,06,29,11,56,22.30
2006,06,29,11,57,22.10
2006,06,29,11,58,22.00
2006,06,29,11,59,22.00
2006,06,29,12,00,22.10
2006,06,29,12,01,22.20
2006,06,29,12,02,22.30
2006,06,29,12,03,22.40
2006,06,29,12,04,22.50
2006,06,29,12,05,22.50
2006,06,29,12,06,22.60
2006,06,29,12,07,22.70
2006,06,29,12,08,22.70
2006,06,29,12,09,22.80
2006,06,29,12,10,22.80
2006,06,29,12,11,22.90
2006,06,29,12,12,23.00
2006,06,29,12,13,23.10
2006,06,29,12,14,23.10
2006,06,29,12,15,23.20
2006,06,29,12,16,23.20
2006,06,29,12,17,23.30
2006,06,29,12,18,23.40
2006,06,29,12,19,23.40
2006,06,29,12,20,23.40
2006,06,29,12,21,23.30
2006,06,29,12,22,23.40
2006,06,29,12,23,23.40
2006,06,29,12,24,23.30
2006,06,29,12,25,23.30
2006,06,29,12,26,23.20
2006,06,29,12,27,23.10
2006,06,29,12,28,23.10
2006,06,29,12,29,23.10
2006,06,29,12,30,23.10
2006,06,29,12,31,23.10
2006,06,29,12,32,23.30
2006,06,29,12,33,23.40
2006,06,29,12,34,23.40
2006,06,29,12,35,23.40
2006,06,29,12,36,23.40
2006,06,29,12,37,23.50
2006,06,29,12,38,23.60
2006,06,29,12,39,23.80
2006,06,29,12,40,23.90
2006,06,29,12,41,24.00
2006,06,29,12,42,24.10
2006,06,29,12,43,24.20
2006,06,29,12,44,24.30
2006,06,29,12,45,24.30
2006,06,29,12,46,24.40
2006,06,29,12,47,24.50
2006,06,29,12,48,24.60
2006,06,29,12,49,24.60
2006,06,29,12,50,24.60
2006,06,29,12,51,24.50
2006,06,29,12,52,24.40
2006,06,29,12,53,24.40
2006,06,29,12,54,24.30
2006,06,29,12,55,24.30
2006,06,29,12,56,24.20
2006,06,29,12,57,24.20
2006,06,29,12,58,24.10
2006,06,29,12,59,24.10
2006,06,29,13,00,24.10
2006,06,29,13,01,24.10
2006,06,29,13,02,24.10
2006,06,29,13,03,24.10
2006,06,29,13,04,24.10
2006,06,29,13,05,24.10
2006,06,29,13,06,24.10
2006,06,29,13,07,24.10
2006,06,29,13,08,24.20
2006,06,29,13,09,24.30
2006,06,29,13,10,24.20
2006,06,29,13,11,24.20
2006,06,29,13,12,24.30
2006,06,29,13,13,24.30
2006,06,29,13,14,24.30
2006,06,29,13,15,24.40
2006,06,29,13,16,24.50
2006,06,29,13,17,24.70
2006,06,29,13,18,24.80
2006,06,29,13,19,24.90
2006,06,29,13,20,25.00
2006,06,29,13,21,25.00
2006,06,29,13,22,25.00
2006,06,29,13,23,25.10
2006,06,29,13,24,25.20
2006,06,29,13,25,25.10
2006,06,29,13,26,25.00
2006,06,29,13,27,25.00
2006,06,29,13,28,25.10
2006,06,29,13,29,25.20
2006,06,29,13,30,25.20
2006,06,29,13,31,25.20
2006,06,29,13,32,25.10
2006,06,29,13,33,25.00
2006,06,29,13,34,24.70
2006,06,29,13,35,24.60
2006,06,29,13,36,24.50
2006,06,29,13,37,24.40
2006,06,29,13,38,24.40
2006,06,29,13,39,24.40
2006,06,29,13,40,24.50
2006,06,29,13,41,24.60
2006,06,29,13,42,24.70
2006,06,29,13,43,24.80
2006,06,29,13,44,24.90
2006,06,29,13,45,25.00
2006,06,29,13,46,24.90
2006,06,29,13,47,24.80
2006,06,29,13,48,24.80
2006,06,29,13,49,24.90
2006,06,29,13,50,24.90
2006,06,29,13,51,24.90
2006,06,29,13,52,24.90
2006,06,29,13,53,25.00
2006,06,29,13,54,25.00
2006,06,29,13,55,25.10
2006,06,29,13,56,25.10
2006,06,29,13,57,25.10
2006,06,29,13,58,25.20
2006,06,29,13,59,25.20
2006,06,29,14,00,25.10
2006,06,29,14,01,25.00
2006,06,29,14,02,25.00
2006,06,29,14,03,24.90
2006,06,29,14,04,24.90
2006,06,29,14,05,24.90
2006,06,29,14,06,25.00
2006,06,29,14,07,25.10
2006,06,29,14,08,25.10
2006,06,29,14,09,25.20
2006,06,29,14,10,25.30
2006,06,29,14,11,25.30
2006,06,29,14,12,25.30
2006,06,29,14,13,25.30
2006,06,29,14,14,25.30
2006,06,29,14,15,25.30
2006,06,29,14,16,25.30
2006,06,29,14,17,25.30
2006,06,29,14,18,25.20
2006,06,29,14,19,25.10
2006,06,29,14,20,25.00
2006,06,29,14,21,25.00
2006,06,29,14,22,24.90
2006,06,29,14,23,25.00
2006,06,29,14,24,25.10
2006,06,29,14,25,25.20
2006,06,29,14,26,25.20
2006,06,29,14,27,25.20
2006,06,29,14,28,25.30
2006,06,29,14,29,25.40
2006,06,29,14,30,25.50
2006,06,29,14,31,25.60
2006,06,29,14,32,25.60
2006,06,29,14,33,25.50
2006,06,29,14,34,25.40
2006,06,29,14,37,25.50
2006,06,29,14,38,25.40
2006,06,29,14,39,25.40
2006,06,29,14,40,25.40
2006,06,29,14,41,25.40
2006,06,29,14,42,25.40
2006,06,29,14,43,25.60
2006,06,29,14,44,25.60
2006,06,29,14,45,25.60
2006,06,29,14,46,25.70
2006,06,29,14,47,25.70
2006,06,29,14,48,25.60
2006,06,29,14,49,25.50
2006,06,29,14,50,25.40
2006,06,29,14,51,25.50
2006,06,29,14,52,25.60
2006,06,29,14,53,25.60
2006,06,29,14,54,25.60
2006,06,29,14,55,25.50
2006,06,29,14,56,25.40
2006,06,29,14,57,25.40
2006,06,29,14,58,25.50
2006,06,29,14,59,25.40
2006,06,29,15,00,25.40
2006,06,29,15,01,25.30
2006,06,29,15,02,25.30
2006,06,29,15,03,25.20
2006,06,29,15,04,25.20
2006,06,29,15,05,25.10
2006,06,29,15,06,25.10
2006,06,29,15,07,25.10
2006,06,29,15,08,25.10
2006,06,29,15,09,25.10
2006,06,29,15,10,25.10
2006,06,29,15,11,25.20
2006,06,29,15,12,25.20
2006,06,29,15,13,25.30
2006,06,29,15,14,25.40
2006,06,29,15,15,25.50
2006,06,29,15,16,25.60
2006,06,29,15,17,25.80
2006,06,29,15,18,25.90
2006,06,29,15,19,26.00
2006,06,29,15,20,26.20
2006,06,29,15,21,26.30
2006,06,29,15,22,26.40
2006,06,29,15,23,26.50
2006,06,29,15,24,26.60
2006,06,29,15,25,26.70
2006,06,29,15,26,26.90
2006,06,29,15,27,27.00
2006,06,29,15,28,27.10
2006,06,29,15,29,27.10
2006,06,29,15,30,27.20
2006,06,29,15,31,27.30
2006,06,29,15,32,27.30
2006,06,29,15,33,27.30
2006,06,29,15,34,27.30
2006,06,29,15,35,27.20
2006,06,29,15,36,27.20
2006,06,29,15,37,27.10
2006,06,29,15,38,27.20
2006,06,29,15,39,27.20
2006,06,29,15,40,27.20
2006,06,29,15,41,27.20
2006,06,29,15,42,27.20
2006,06,29,15,43,27.30
2006,06,29,15,44,27.30
2006,06,29,15,45,27.30
2006,06,29,15,46,27.20
2006,06,29,15,47,27.00
2006,06,29,15,48,26.80
2006,06,29,15,49,26.80
2006,06,29,15,50,26.80
2006,06,29,15,51,26.70
2006,06,29,15,52,26.70
2006,06,29,15,53,26.70
2006,06,29,15,54,26.70
2006,06,29,15,55,26.80
2006,06,29,15,56,26.80
2006,06,29,15,57,26.90
2006,06,29,15,58,27.00
2006,06,29,15,59,27.00
2006,06,29,16,00,27.00
2006,06,29,16,01,26.90
2006,06,29,16,02,26.90
2006,06,29,16,03,26.90
2006,06,29,16,04,26.90
2006,06,29,16,05,26.90
2006,06,29,16,06,26.90
2006,06,29,16,07,26.90
2006,06,29,16,08,26.90
2006,06,29,16,09,27.00
2006,06,29,16,10,27.20
2006,06,29,16,11,27.20
2006,06,29,16,12,27.20
2006,06,29,16,13,27.20
2006,06,29,16,14,27.20
2006,06,29,16,15,27.20
2006,06,29,16,16,27.10
2006,06,29,16,17,27.00
2006,06,29,16,18,26.90
2006,06,29,16,19,26.70
2006,06,29,16,20,26.50
2006,06,29,16,21,26.50
2006,06,29,16,22,26.40
2006,06,29,16,23,26.30
2006,06,29,16,24,26.20
2006,06,29,16,25,26.10
2006,06,29,16,26,26.20
2006,06,29,16,27,26.20
2006,06,29,16,28,26.30
2006,06,29,16,29,26.30
2006,06,29,16,30,26.40
2006,06,29,16,31,26.40
2006,06,29,16,32,26.50
2006,06,29,16,33,26.60
2006,06,29,16,34,26.70
2006,06,29,16,35,26.80
2006,06,29,16,36,26.80
2006,06,29,16,37,26.80
2006,06,29,16,38,26.80
2006,06,29,16,39,26.80
2006,06,29,16,40,26.70
2006,06,29,16,41,26.60
2006,06,29,16,42,26.50
2006,06,29,16,43,26.40
2006,06,29,16,44,26.40
2006,06,29,16,45,26.50
2006,06,29,16,46,26.60
2006,06,29,16,47,26.70
2006,06,29,16,48,26.90
2006,06,29,16,49,27.00
2006,06,29,16,50,27.10
2006,06,29,16,51,27.10
2006,06,29,16,52,27.10
2006,06,29,16,53,27.10
2006,06,29,16,54,27.10
2006,06,29,16,55,27.00
2006,06,29,16,56,27.00
2006,06,29,16,57,26.90
2006,06,29,16,58,27.00
2006,06,29,16,59,27.10
2006,06,29,17,00,27.20
2006,06,29,17,01,27.30
2006,06,29,17,02,27.30
2006,06,29,17,03,27.40
2006,06,29,17,04,27.40
2006,06,29,17,05,27.30
2006,06,29,17,06,27.20
2006,06,29,17,07,27.10
2006,06,29,17,08,27.00
2006,06,29,17,09,26.90
2006,06,29,17,10,26.90
2006,06,29,17,11,26.80
2006,06,29,17,12,26.80
2006,06,29,17,13,26.80
2006,06,29,17,14,26.70
2006,06,29,17,15,26.70
2006,06,29,17,16,26.60
2006,06,29,17,17,26.60
2006,06,29,17,18,26.60
2006,06,29,17,19,26.50
2006,06,29,17,20,26.50
2006,06,29,17,21,26.50
2006,06,29,17,22,26.50
2006,06,29,17,23,26.60
2006,06,29,17,24,26.50
2006,06,29,17,25,26.50
2006,06,29,17,26,26.40
2006,06,29,17,27,26.30
2006,06,29,17,28,26.20
2006,06,29,17,29,26.20
2006,06,29,17,30,26.20
2006,06,29,17,31,26.30
2006,06,29,17,32,26.30
2006,06,29,17,33,26.30
2006,06,29,17,34,26.40